User: anonymous   Login
Location: Unspecified
(0.0000°N, 0.0000°E)
Time: 21:27:13
(UTC+00:00)
Language:

NOSS 2-2 (E) - Orbit

View from above orbital plane
View from above orbital plane
View from above satellite
View from above satellite

Ground track
Ground track

The orbit data is extracted from the following two-line orbital elements,

1 21809U 91076E   18049.21320764 0.00000060  00000-0  17440-4 0    09
2 21809  63.3450 182.6567 0768000  25.3520 334.6480 13.41398305    01
Epoch (UTC): 18 February 2018 05:07:01
Eccentricity: 0.0768000
inclination: 63.3450°
perigee height: 529 km
apogee height: 1679 km
right ascension of ascending node: 182.6567°
argument of perigee: 25.3520°
revolutions per day: 13.41398305
mean anomaly at epoch: 334.6480°
orbit number at epoch: 0

The dashed part of the orbit path shows where the satellite is in the earth's shadow,  

DLR